Flag for Germany Weather past 2 weeks in Limburg an der Lahn, Hesse, Germany

50 °F


Feels Like: 46 °F
Forecast: 38 / 53 °F
Wind: 12 mph from East

Location: Hessen

Current Time: Oct 10, 2015 at 5:03:46 PM

Latest Report: Oct 10, 2015 at 4:20 PM

Visibility: 10 mi

Pressure: 30.04 "Hg

Humidity: 71%

Dew point: 41 °F

Location of Limburg an der LahnLocation

Historic Weather in Limburg an der Lahn — Graph


Limburg an der Lahn temperature yesterday

Maximum temperature yesterday: 50 °F (at 1:20 PM)
Minimum temperature yesterday: 46 °F (at 7:50 AM)
Average temperature yesterday: 49 °F

Past Weeks' High & Low Weather Summary

High64 °F (Oct 3, 2:50 PM)100% (Sep 26, 7:20 AM)30.60 "Hg (Sep 26, 7:20 AM)
Low39 °F (Oct 1, 7:50 AM)48% (Oct 2, 4:50 PM)29.65 "Hg (Oct 6, 5:20 PM)
Average52 °F82%30.20 "Hg
* Reported Sep 25 3:20 PM — Oct 10 3:50 PM, Limburg an der Lahn, Weather by CustomWeather, © 2015

Note: Actual official high and low records may vary slightly from our data, if they occured in-between our weather recording intervals... More about our weather records


Limburg an der Lahn weather history for previous 24 hours

Time TempWeatherWind HumidityBarometerVisibility
3:50 PM
Sat, Oct 10
52 °FSunny.12 mph72%30.04 "Hg10 mi
3:20 PM52 °FPassing clouds.14 mph72%30.04 "HgN/A
2:50 PM52 °FPassing clouds.10 mph72%30.07 "HgN/A
2:20 PM50 °FPassing clouds.10 mph71%30.07 "HgN/A
1:50 PM48 °FPassing clouds.10 mph76%30.07 "HgN/A
1:20 PM48 °FPassing clouds.12 mph82%30.07 "HgN/A
12:50 PM48 °FScattered clouds.10 mph94%30.07 "HgN/A
12:20 PM46 °FPartly sunny.9 mph100%30.09 "HgN/A
11:50 AM46 °FPartly sunny.9 mph100%30.09 "Hg5 mi
11:20 AM45 °FFog.10 mph100%30.09 "Hg3 mi
10:50 AM46 °FFog.12 mph100%30.09 "Hg1 mi
10:20 AM46 °FFog.12 mph100%30.09 "Hg1 mi
9:50 AM46 °FFog.12 mph100%30.09 "Hg1 mi
9:20 AM46 °FDrizzle. Fog.12 mph100%30.09 "Hg1 mi
8:50 AM46 °FFog.8 mph100%30.09 "Hg0 mi
8:20 AM46 °FFog.8 mph100%30.09 "Hg0 mi
7:50 AM46 °FFog.9 mph100%30.09 "Hg1 mi
9:50 PM
Fri, Oct 9
50 °FPartly cloudy.3 mph100%30.12 "Hg4 mi
9:20 PM50 °FPartly cloudy.5 mph100%30.12 "Hg2 mi
8:50 PM50 °FPartly cloudy.7 mph100%30.12 "Hg3 mi
8:20 PM50 °FPartly cloudy.7 mph100%30.15 "Hg3 mi
7:50 PM50 °FPartly cloudy.7 mph100%30.15 "Hg4 mi
7:20 PM50 °FBroken clouds.8 mph100%30.12 "Hg3 mi
6:50 PM50 °FDrizzle. More clouds than sun.8 mph100%30.12 "Hg2 mi
6:20 PM50 °FFog.6 mph100%30.12 "Hg2 mi
5:50 PM50 °FBroken clouds.7 mph100%30.12 "Hg4 mi
5:20 PM50 °FBroken clouds.5 mph100%30.12 "Hg4 mi
Weather by CustomWeather, © 2015

See weather overviewHow to use our weather pages